BREEZE-M DEB, 41319

Orbit data source: Space-Track

BREEZE-M DEB, 41319 is space debris in HEO originally from a launch on Thu, 17 May 2012 UTC launched from the Tyuratam Missile And Space Complex (TTMTR). Debris objects in space refer to the collection of defunct objects orbiting the Earth. Examples of debris include non-operational satellites, rocket bodies, and fragments generated from explosions, collisions, or faulty payload assembly.

Loading next visibility...
Identifier
41319, 2012-026F
Orbit
HEO
Country
Flag of CISCIS
Related business
Manufacturer
Khrunichev
Mission
Spacecraft
Bus & Motor
Unknown
Mass
Unknown
Launch date (UTC)
2012-05-17 (13 years ago)
Launch vehicle
Unknown
Launch site
Tyuratam Missile And Space Complex (TTMTR)
Object type
Payload
Rocket body
Debris
Shape & HBR
Unknown shape, 1.1 m
Radar Cross Section
RCS unknown

Expand to show TLE details & history
Last TLE update: 1 week ago

TLE from 1 week ago
0 BREEZE-M DEB
1 41319U 12026F   25300.83958473 -.00000052  00000-0  00000-0 0  9994
2 41319  10.0353 159.7525 4082016   4.1977 358.5599  1.76695166 63511
Epoch: 2025-10-27T20:09Z
TLE epoch observation values (Epoch: 2025-10-27T20:09:00.120Z)
Latitude
-0°
Longitude
-178.86553°
Altitude
10,744.704 km
Speed
5.724 km/s
True Right ascension
10h 39m 16s
True Declination
0° 00' 00"
Sunlit
Object was in daylight at epoch
Visualization orbit readout
Latitude
Unknown
Longitude
Unknown
Altitude
Unknown
Speed
Unknown
Apparent Right ascension
Unknown
Apparent Declination
Unknown
Sunlit
N/A
Visualization observer readout
Local Sidereal Time
12:27:42
Azimuth
Unknown
Elevation
Unknown
Doppler factor
Unknown
Orbital elements
Apogee altitude
34,323.564 km
Perigee altitude
10,726.801 km
Semi-major axis
28,903.32 km
Eccentricity
0.4082
Inclination
10.0353°
RAAN
159.7525°
Arg. of periapsis
4.1977°
True anomaly
356.24781°
Mean anomaly
358.5599°
Eccentric anomaly
357.56707°
Mean motion
0.44169 °/min
Orbital period
815.04 mins
BSTAR
0
Loading maneuver chart data...
Computing Atmospheric mass density...
Loading historical data...
Loading historical data...
Loading historical data...
Loading historical data...
Loading historical data...
Loading historical data...
Loading historical data...

Documentation

Showing up to 5 results
|